Location: UMBC
(39.2555°N, 76.7093°W)
Time: 17:09:54
(UTC+02:00)

Amateur Radio Satellites - All Passes

Search period start: 03 August 2015 16:39
Search period end: 04 August 2015 16:39
Location: UMBC, 39.2555°N, 76.7093°W

Satellite Date Start Highest point End Downlink Frequencies (MHz)
Time Altitude Azimuth
Cosmos 2491 03 Aug 16:43:34 16:46:23 12° 77° (ENE) 16:49:58 435.465 / 435.565
COMPASS 1 03 Aug 16:46:46 16:50:33 32° 289° (WNW) 16:54:15 437.405
POLYITAN 1 03 Aug 16:50:25 16:54:01 29° 71° (ENE) 16:57:42 437.675
HO-68 03 Aug 16:51:35 16:58:16 42° 294° (WNW) 17:04:51 435.675
DELFI C3 03 Aug 16:55:04 16:59:08 77° 101° (ESE) 17:03:09 145.870
ZACube-1 03 Aug 16:55:41 17:00:15 71° 101° (ESE) 17:04:51 437.345
BUGSAT 1 03 Aug 16:58:31 17:01:30 21° 69° (ENE) 17:04:34 437.445
POPSAT HIP 1 03 Aug 17:06:07 17:10:03 42° 73° (ENE) 17:14:03 437.405
SEEDS 03 Aug 17:06:39 17:09:24 16° 293° (WNW) 17:12:00 437.485
QB50P2 03 Aug 17:14:14 17:18:20 55° 74° (ENE) 17:22:28 145.880/145.840
CUTE 1.7 + AOD 2 03 Aug 17:14:28 17:16:03 12° 295° (WNW) 17:17:25 437.475
FUNcube-1 03 Aug 17:16:19 17:20:52 71° 284° (WNW) 17:25:26 145.935
UNISAT 6 03 Aug 17:22:18 17:26:29 44° 262° (W) 17:30:46 437.425
PCSat 03 Aug 17:22:48 17:24:26 11° 322° (NW) 17:25:50 145.827
HUMSAT D 03 Aug 17:22:55 17:27:12 56° 100° (E) 17:31:27 437.325/437.525
UWE-3 03 Aug 17:25:08 17:29:31 43° 287° (WNW) 17:33:56 435.000/436.395/437.385
Oscar 11 03 Aug 17:25:30 17:29:27 33° 288° (WNW) 17:33:19 145.826/435.025
UKube-1 03 Aug 17:26:54 17:30:51 35° 97° (E) 17:34:49 .
AAUSAT CUBESAT 2 03 Aug 17:27:19 17:29:40 14° 293° (WNW) 17:31:52 437.432
CINEMA 3 03 Aug 17:32:07 17:35:05 16° 293° (WNW) 17:37:55 145.822/145.860
O/OREOS (USA 219) 03 Aug 17:35:04 17:39:41 90° 259° (W) 17:44:17 437.305
DUCHIFAT 1 03 Aug 17:35:55 17:40:05 87° 256° (WSW) 17:44:18 145.980
QB50P1 03 Aug 17:41:06 17:45:16 72° 258° (WSW) 17:49:29 145.935-145.965
NANOSAT C BR1 03 Aug 17:41:18 17:45:29 73° 258° (WSW) 17:49:41 145.865
AISAT 03 Aug 17:44:01 17:48:05 36° 97° (E) 17:52:12 437.250
CUBEBUG 2 03 Aug 17:46:24 17:50:01 22° 291° (WNW) 17:53:35 437.445
CUBEBUG 1 03 Aug 17:50:57 17:54:26 24° 94° (E) 17:58:00 437.445
DX 1 03 Aug 17:58:31 18:02:52 90° 324° (NW) 18:07:13 434.975-435.025
YUBILEINY 03 Aug 18:00:31 18:09:24 86° 82° (E) 18:18:16 435.215
TIGRISAT 03 Aug 18:06:24 18:09:12 16° 270° (W) 18:11:51 435.000
50 SAT 03 Aug 18:07:22 18:11:23 86° 99° (E) 18:15:20 437.505
ANTELSAT 03 Aug 18:09:37 18:12:08 14° 271° (W) 18:14:28 437.575/2403.000
SPROUT 03 Aug 18:18:28 18:20:40 14° 90° (E) 18:23:03 437.525
VELOX 1 03 Aug 18:22:03 18:26:29 85° 284° (WNW) 18:30:53 145.980
POLYITAN 1 03 Aug 18:26:40 18:29:58 21° 267° (W) 18:33:10 437.675
AIST 1 03 Aug 18:31:35 18:35:55 68° 279° (W) 18:40:13
Cosmos 2491 03 Aug 18:33:15 18:41:58 75° 94° (E) 18:50:42 435.465 / 435.565
BUGSAT 1 03 Aug 18:33:19 18:36:50 28° 264° (W) 18:40:18 437.445
ZACube-1 03 Aug 18:34:19 18:36:05 12° 295° (WNW) 18:37:37 437.345
ESTCUBE 1 03 Aug 18:43:29 18:47:58 71° 285° (WNW) 18:52:25 437.505/2401.250
POPSAT HIP 1 03 Aug 18:43:45 18:46:11 15° 269° (W) 18:48:27 437.405
Oscar 19 03 Aug 18:44:54 18:48:45 23° 66° (ENE) 18:52:45 437.125/150
QB50P2 03 Aug 18:53:14 18:54:39 11° 271° (W) 18:55:48 145.880/145.840
HUMSAT D 03 Aug 19:00:23 19:02:30 13° 294° (WNW) 19:04:24 437.325/437.525
UKube-1 03 Aug 19:03:36 19:06:46 20° 293° (WNW) 19:09:50 .
AISAT 03 Aug 19:21:12 19:24:26 20° 293° (WNW) 19:27:34 437.250
CUBEBUG 1 03 Aug 19:27:04 19:30:47 28° 290° (WNW) 19:34:26 437.445
Cosmos 2504 03 Aug 19:38:11 19:46:19 49° 76° (ENE) 19:54:38 435.465 / 435.565
SPROUT 03 Aug 19:52:54 19:57:02 46° 287° (WNW) 20:01:09 437.525
TISAT 1 03 Aug 19:54:32 19:58:46 75° 284° (WNW) 20:02:58 437.305
YUBILEINY 03 Aug 19:59:34 20:05:14 18° 280° (W) 20:10:23 435.215
Gurwin Techsat 1B 03 Aug 20:03:03 20:07:53 37° 70° (ENE) 20:12:46 435.225
BEESAT 03 Aug 20:05:27 20:09:02 22° 93° (E) 20:12:45 436.000
ITAMSAT 1 03 Aug 20:10:25 20:15:12 39° 70° (ENE) 20:20:03 435.822/435.867
JAS-2 03 Aug 20:22:04 20:27:00 25° 62° (ENE) 20:32:35 435.910
Oscar 19 03 Aug 20:23:02 20:27:52 42° 262° (W) 20:32:43 437.125/150
SWISSCUBE 03 Aug 20:25:48 20:30:15 38° 98° (E) 20:34:40 437.505
Cosmos 2491 03 Aug 20:33:09 20:39:52 23° 296° (WNW) 20:46:14 435.465 / 435.565
ITUPSAT 1 03 Aug 20:47:52 20:52:36 59° 101° (E) 20:57:18 437.325
AO-7 03 Aug 21:02:50 21:10:09 36° 61° (ENE) 21:17:37 29.400- 29.500
DANDE 03 Aug 21:11:44 21:15:30 36° 79° (E) 21:20:28 436.750
CUSAT 1 03 Aug 21:12:58 21:17:25 64° 80° (E) 21:23:23 437.405
STARS 03 Aug 21:20:53 21:22:30 12° 89° (E) 21:24:23 437.465
Cosmos 2504 03 Aug 21:30:47 21:38:20 36° 273° (W) 21:45:48 435.465 / 435.565
BEESAT 03 Aug 21:42:37 21:47:02 37° 289° (WNW) 21:51:22 436.000
Gurwin Techsat 1B 03 Aug 21:43:31 21:47:58 26° 266° (W) 21:52:19 435.225
ITAMSAT 1 03 Aug 21:50:36 21:54:51 24° 266° (W) 21:59:00 435.822/435.867
KKS-1 03 Aug 21:52:09 21:56:28 47° 99° (E) 22:00:47 437.445
HORYU 2 03 Aug 21:55:46 22:00:07 55° 73° (ENE) 22:04:31 437.375
SWISSCUBE 03 Aug 22:04:12 22:07:52 22° 293° (WNW) 22:11:24 437.505
JAS-2 03 Aug 22:05:34 22:11:33 56° 262° (W) 22:18:23 435.910
ITUPSAT 1 03 Aug 22:27:17 22:30:02 15° 296° (WNW) 22:32:36 437.325
PCSat 03 Aug 22:41:38 22:44:24 14° 41° (NE) 22:47:21 145.827
GONETS M04 03 Aug 22:42:34 22:50:30 39° 72° (ENE) 22:58:36
SO-50 03 Aug 22:44:48 22:48:03 17° 41° (NE) 22:51:22 436.795
VERMONT LUNAR 03 Aug 22:46:09 22:48:24 18° 150° (SSE) 22:50:41 437.305
AO-7 03 Aug 22:54:37 23:02:44 52° 259° (W) 23:10:49 29.400- 29.500
STARS 03 Aug 22:55:01 22:59:23 57° 286° (WNW) 23:03:43 437.465
DANDE 03 Aug 22:55:30 22:58:36 18° 264° (W) 23:02:06 436.750
CUSAT 1 03 Aug 22:57:31 22:59:59 13° 266° (W) 23:02:23 437.405
MOZHAYETS 4 03 Aug 23:01:56 23:06:06 33° 96° (E) 23:10:15
KKS-1 03 Aug 23:29:56 23:32:46 16° 294° (WNW) 23:35:25 437.445
HORYU 2 03 Aug 23:35:03 23:37:10 13° 271° (W) 23:39:02 437.375
CUTE-I 03 Aug 23:37:13 23:41:25 25° 67° (ENE) 23:45:45 437.470
Cubesat XI-IV 04 Aug 00:20:50 00:26:06 62° 74° (ENE) 00:31:25 437.490
VERMONT LUNAR 04 Aug 00:21:38 00:24:48 73° 163° (SSE) 00:27:59 437.305
PCSat 04 Aug 00:23:17 00:28:45 83° 61° (ENE) 00:34:10 145.827
SO-50 04 Aug 00:24:15 00:29:11 74° 241° (WSW) 00:33:59 436.795
Cosmos 2499 04 Aug 00:27:28 00:35:47 45° 74° (ENE) 00:44:12 435.465 / 435.565
GONETS M04 04 Aug 00:39:20 00:47:29 44° 271° (W) 00:55:31
MOZHAYETS 4 04 Aug 00:39:28 00:43:10 23° 291° (WNW) 00:46:44
STRAND 1 04 Aug 01:02:32 01:05:21 15° 90° (E) 01:08:25 437.568
CUBESAT XI-V 04 Aug 01:03:16 01:07:47 53° 99° (E) 01:12:17 437.345
CUTE-I 04 Aug 01:16:14 01:21:17 41° 262° (W) 01:26:20 437.470
PHONESAT 2.4 04 Aug 01:20:02 01:23:17 37° 155° (SSE) 01:26:34 2401.200-2431.200
DOVE 4 04 Aug 01:32:05 01:33:04 11° 65° (ENE) 01:34:17 437.250
HO-68 04 Aug 01:32:24 01:37:54 26° 61° (ENE) 01:43:36 435.675
RS-15 04 Aug 01:50:03 01:57:18 22° 103° (ESE) 02:05:19 29.354- 29.394
GOMX 1 04 Aug 01:54:14 01:57:58 33° 72° (ENE) 02:01:44 467.674
BRITE-PL 04 Aug 01:57:09 02:01:28 67° 76° (ENE) 02:05:38 437.365/2234.400
VERMONT LUNAR 04 Aug 01:58:24 02:01:34 67° 1° (N) 02:04:45 437.305
COMPASS 1 04 Aug 02:03:13 02:05:03 13° 66° (ENE) 02:07:04 437.405
Cubesat XI-IV 04 Aug 02:03:25 02:06:43 16° 270° (W) 02:09:46 437.490
PCSat 04 Aug 02:09:27 02:11:32 12° 256° (WSW) 02:13:16 145.827
Cosmos 2499 04 Aug 02:20:49 02:28:53 40° 272° (W) 02:36:49 435.465 / 435.565
SEEDS 04 Aug 02:21:07 02:24:36 26° 70° (ENE) 02:28:11 437.485
ISS 04 Aug 02:23:06 02:26:20 67° 139° (SE) 02:29:34 145.825
CUTE 1.7 + AOD 2 04 Aug 02:28:05 02:32:01 38° 72° (ENE) 02:36:02 437.475
PRISM 04 Aug 02:32:59 02:37:05 70° 285° (WNW) 02:41:08 437.425
CANX-2 04 Aug 02:36:40 02:40:50 54° 75° (ENE) 02:45:03 2200.000
STRAND 1 04 Aug 02:40:00 02:45:01 58° 287° (WNW) 02:50:00 437.568
AAUSAT CUBESAT 2 04 Aug 02:40:13 02:43:46 28° 71° (ENE) 02:47:25 437.432
CUBESAT XI-V 04 Aug 02:42:08 02:44:49 15° 294° (WNW) 02:47:19 437.345
Oscar 11 04 Aug 02:44:43 02:47:04 15° 66° (ENE) 02:49:36 145.826/435.025
UWE-3 04 Aug 02:47:34 02:49:09 12° 65° (ENE) 02:50:59 435.000/436.395/437.385
CINEMA 3 04 Aug 02:54:52 02:58:44 40° 73° (ENE) 03:02:45 145.822/145.860
PHONESAT 2.4 04 Aug 02:57:37 03:01:08 80° 351° (N) 03:04:39 2401.200-2431.200
DOVE 4 04 Aug 03:06:18 03:10:24 59° 260° (W) 03:14:30 437.250
CUBEBUG 2 04 Aug 03:07:06 03:10:32 25° 70° (ENE) 03:14:06 437.445
HO-68 04 Aug 03:18:06 03:25:10 62° 258° (WSW) 03:32:16 435.675
GOMX 1 04 Aug 03:33:23 03:36:18 17° 268° (W) 03:39:03 467.674
VERMONT LUNAR 04 Aug 03:35:10 03:38:19 66° 198° (SSW) 03:41:28 437.305
COMPASS 1 04 Aug 03:36:10 03:40:17 54° 261° (W) 03:44:28 437.405
DELFI C3 04 Aug 03:40:59 03:44:45 39° 73° (ENE) 03:48:35 145.870
AUBIESAT-1 04 Aug 03:46:23 03:47:30 11° 92° (E) 03:48:56 437.475
ZACube-1 04 Aug 03:50:42 03:54:42 46° 73° (ENE) 03:58:52 437.345
SEEDS 04 Aug 03:56:47 04:00:21 25° 266° (W) 04:03:51 437.485
RS-15 04 Aug 03:57:28 04:08:23 87° 300° (WNW) 04:19:46 29.354- 29.394
ISS 04 Aug 04:00:36 04:03:03 19° 337° (NNW) 04:05:28 145.825
CUTE 1.7 + AOD 2 04 Aug 04:05:16 04:08:08 17° 269° (W) 04:10:52 437.475
FUNcube-1 04 Aug 04:10:51 04:15:02 78° 77° (ENE) 04:19:21 145.935
HUMSAT D 04 Aug 04:13:44 04:17:26 33° 72° (ENE) 04:21:16 437.325/437.525
BEESAT 3 04 Aug 04:14:05 04:16:37 17° 111° (ESE) 04:19:18 437.485
CANX-2 04 Aug 04:15:23 04:17:10 12° 271° (W) 04:18:43 2200.000
AAUSAT CUBESAT 2 04 Aug 04:16:00 04:19:22 23° 266° (W) 04:22:41 437.432
Oscar 11 04 Aug 04:18:40 04:22:52 48° 261° (W) 04:27:07 145.826/435.025
UKube-1 04 Aug 04:20:55 04:24:30 27° 69° (ENE) 04:28:11 .
UWE-3 04 Aug 04:21:05 04:25:12 57° 260° (W) 04:29:28 435.000/436.395/437.385
TIGRISAT 04 Aug 04:23:36 04:24:11 10° 87° (E) 04:25:07 435.000
ANTELSAT 04 Aug 04:25:47 04:27:22 12° 88° (E) 04:29:15 437.575/2403.000
CINEMA 3 04 Aug 04:33:46 04:36:15 15° 270° (W) 04:38:35 145.822/145.860
PHONESAT 2.4 04 Aug 04:35:41 04:39:12 78° 7° (N) 04:42:43 2401.200-2431.200
AIST 1 04 Aug 04:40:16 04:43:46 25° 74° (ENE) 04:47:19
AISAT 04 Aug 04:40:55 04:44:42 29° 70° (ENE) 04:48:33 437.250
CUBEBUG 2 04 Aug 04:43:41 04:47:11 25° 266° (W) 04:50:41 437.445
Cosmos 2491 04 Aug 04:45:22 04:53:04 35° 71° (ENE) 05:00:53 435.465 / 435.565
CUBEBUG 1 04 Aug 04:46:41 04:49:39 19° 68° (ENE) 04:52:45 437.445
50 SAT 04 Aug 04:50:00 04:53:36 38° 73° (ENE) 04:57:17 437.505
M-CUBED/EXP-1 PRIME 04 Aug 04:51:34 04:56:21 69° 106° (ESE) 05:00:57 437.505
DX 1 04 Aug 04:52:50 04:57:08 68° 75° (ENE) 05:01:27 434.975-435.025
YUBILEINY 04 Aug 05:07:00 05:12:25 19° 81° (E) 05:18:20 435.215
VERMONT LUNAR 04 Aug 05:12:40 05:14:41 16° 212° (SSW) 05:16:39 437.305
SPROUT 04 Aug 05:13:49 05:14:15 10° 64° (ENE) 05:14:57 437.525
BEESAT 2 04 Aug 05:14:39 05:18:41 60° 118° (ESE) 05:22:45 435.950
UNISAT 6 04 Aug 05:14:55 05:19:21 41° 97° (E) 05:23:49 437.425
DELFI C3 04 Aug 05:17:34 05:20:02 15° 269° (W) 05:22:21 145.870
AUBIESAT-1 04 Aug 05:18:04 05:22:49 74° 290° (WNW) 05:27:21 437.475
VELOX 1 04 Aug 05:18:19 05:22:43 74° 76° (ENE) 05:27:07 145.980
DUCHIFAT 1 04 Aug 05:22:42 05:25:18 16° 92° (E) 05:28:03 145.980
QB50P1 04 Aug 05:27:57 05:31:00 19° 93° (E) 05:34:10 145.935-145.965
NANOSAT C BR1 04 Aug 05:27:57 05:30:58 19° 93° (E) 05:34:06 145.865
ZACube-1 04 Aug 05:29:10 05:31:25 14° 271° (W) 05:33:30 437.345
AIST 2 04 Aug 05:30:46 05:33:45 19° 112° (ESE) 05:36:52 435.215
ESTCUBE 1 04 Aug 05:41:42 05:46:15 88° 257° (WSW) 05:50:48 437.505/2401.250
HUMSAT D 04 Aug 05:50:20 05:53:19 18° 268° (W) 05:56:12 437.325/437.525
BEESAT 3 04 Aug 05:50:23 05:54:16 41° 306° (NW) 05:58:10 437.485
TIGRISAT 04 Aug 05:56:49 06:01:32 75° 284° (WNW) 06:06:14 435.000
UKube-1 04 Aug 05:57:00 06:00:36 25° 265° (W) 06:04:09 .
ANTELSAT 04 Aug 05:59:58 06:04:39 66° 286° (WNW) 06:09:20 437.575/2403.000
O/OREOS (USA 219) 04 Aug 06:10:26 06:11:42 11° 99° (E) 06:13:15 437.305
POLYITAN 1 04 Aug 06:11:45 06:16:01 64° 101° (E) 06:20:17 437.675
RS-15 04 Aug 06:13:23 06:22:45 29° 329° (NNW) 06:32:14 29.354- 29.394
PHONESAT 2.4 04 Aug 06:13:46 06:17:04 39° 204° (SSW) 06:20:22 2401.200-2431.200
BUGSAT 1 04 Aug 06:15:46 06:19:38 40° 98° (E) 06:23:32 437.445
AISAT 04 Aug 06:17:43 06:21:18 23° 266° (W) 06:24:47 437.250
AIST 1 04 Aug 06:17:54 06:21:21 23° 270° (W) 06:24:41
CUBEBUG 1 04 Aug 06:21:44 06:25:47 37° 262° (W) 06:29:48 437.445
50 SAT 04 Aug 06:26:13 06:28:24 14° 269° (W) 06:30:24 437.505
POPSAT HIP 1 04 Aug 06:27:33 06:31:51 85° 282° (WNW) 06:36:08 437.405
M-CUBED/EXP-1 PRIME 04 Aug 06:27:51 06:30:33 15° 301° (WNW) 06:33:01 437.505
QB50P2 04 Aug 06:36:04 06:40:19 65° 285° (WNW) 06:44:33 145.880/145.840
Cosmos 2491 04 Aug 06:41:55 06:50:13 49° 270° (W) 06:58:24 435.465 / 435.565
TISAT 1 04 Aug 06:45:19 06:49:27 69° 76° (ENE) 06:53:37 437.305
SPROUT 04 Aug 06:45:34 06:49:48 71° 258° (WSW) 06:54:05 437.525
UNISAT 6 04 Aug 06:52:23 06:55:52 20° 293° (WNW) 06:59:15 437.425
BEESAT 2 04 Aug 06:54:41 06:57:09 15° 317° (NW) 06:59:31 435.950
DUCHIFAT 1 04 Aug 06:57:19 07:01:18 39° 288° (WNW) 07:05:16 145.980
YUBILEINY 04 Aug 06:59:36 07:08:18 81° 278° (W) 07:17:08 435.215
NANOSAT C BR1 04 Aug 07:03:03 07:06:54 33° 288° (WNW) 07:10:43 145.865
QB50P1 04 Aug 07:03:06 07:06:57 33° 289° (WNW) 07:10:46 145.935-145.965
AIST 2 04 Aug 07:08:04 07:12:05 39° 307° (NW) 07:16:06 435.215
BEESAT 04 Aug 07:11:05 07:14:46 23° 68° (ENE) 07:18:35 436.000
ISS 04 Aug 07:16:13 07:18:03 14° 17° (NNE) 07:19:55 145.825
SWISSCUBE 04 Aug 07:31:15 07:35:42 40° 71° (ENE) 07:40:12 437.505
O/OREOS (USA 219) 04 Aug 07:46:12 07:50:37 61° 294° (WNW) 07:55:07 437.305
POLYITAN 1 04 Aug 07:49:57 07:51:27 11° 295° (WNW) 07:52:43 437.675
BUGSAT 1 04 Aug 07:52:17 07:54:49 16° 292° (WNW) 07:57:12 437.445
ITUPSAT 1 04 Aug 07:53:27 07:58:10 61° 74° (ENE) 08:02:57 437.325
Cosmos 2504 04 Aug 08:08:18 08:14:28 34° 86° (E) 08:21:11 435.465 / 435.565
STARS 04 Aug 08:18:39 08:19:00 10° 63° (ENE) 08:19:38 437.465
Gurwin Techsat 1B 04 Aug 08:21:24 08:24:27 16° 90° (E) 08:27:44 435.225
ITAMSAT 1 04 Aug 08:25:44 08:28:22 14° 89° (E) 08:31:17 435.822/435.867
RS-15 04 Aug 08:33:15 08:40:30 18° 3° (N) 08:48:02 29.354- 29.394
Oscar 19 04 Aug 08:35:10 08:40:21 75° 101° (ESE) 08:45:34 437.125/150
BEESAT 04 Aug 08:48:00 08:52:26 36° 263° (W) 08:56:50 436.000
KKS-1 04 Aug 08:49:19 08:53:24 37° 71° (ENE) 08:57:30 437.445
ISS 04 Aug 08:51:47 08:55:02 61° 36° (NE) 08:58:15 145.825
YUBILEINY 04 Aug 09:01:48 09:06:53 16° 301° (WNW) 09:11:27 435.215
SWISSCUBE 04 Aug 09:10:06 09:13:44 20° 267° (W) 09:17:13 437.505
JAS-2 04 Aug 09:16:02 09:22:30 28° 90° (E) 09:28:59 435.910
ITUPSAT 1 04 Aug 09:34:06 09:36:33 13° 271° (W) 09:38:44 437.325
HORYU 2 04 Aug 09:50:16 09:51:41 12° 89° (E) 09:53:22 437.375
STARS 04 Aug 09:50:32 09:54:54 75° 258° (WSW) 09:59:17 437.465
JUGNU 04 Aug 09:52:32 09:53:54 11° 178° (S) 09:55:17 437.505
Gurwin Techsat 1B 04 Aug 09:59:41 10:04:55 60° 287° (WNW) 10:10:08 435.225
Cosmos 2504 04 Aug 09:59:44 10:06:31 42° 286° (WNW) 10:13:42 435.465 / 435.565
MOZHAYETS 4 04 Aug 10:02:56 10:06:51 28° 70° (ENE) 10:10:52
ITAMSAT 1 04 Aug 10:03:17 10:08:24 63° 287° (WNW) 10:13:30 435.822/435.867
Oscar 19 04 Aug 10:16:29 10:19:10 14° 297° (WNW) 10:21:35 437.125/150
CUSAT 1 04 Aug 10:21:40 10:24:27 76° 98° (E) 10:27:02 437.405
DANDE 04 Aug 10:24:32 10:27:28 39° 98° (E) 10:30:02 436.750
KKS-1 04 Aug 10:27:03 10:30:11 18° 267° (W) 10:33:13 437.445
ISS 04 Aug 10:29:30 10:31:08 13° 230° (SW) 10:32:39 145.825
RS-15 04 Aug 10:47:43 10:57:57 35° 37° (NE) 11:08:46 29.354- 29.394
AO-7 04 Aug 10:57:01 11:05:14 60° 103° (ESE) 11:13:25 29.400- 29.500
JAS-2 04 Aug 11:00:14 11:07:58 60° 289° (WNW) 11:15:26 435.910
HORYU 2 04 Aug 11:24:21 11:28:49 62° 286° (WNW) 11:33:14 437.375
MOZHAYETS 4 04 Aug 11:40:04 11:44:03 27° 265° (W) 11:47:59
GONETS M04 04 Aug 11:42:11 11:50:16 46° 89° (E) 11:58:26
SRMSAT 04 Aug 11:50:31 11:51:51 11° 179° (S) 11:53:11 437.500
CUBESAT XI-V 04 Aug 12:05:27 12:09:55 46° 73° (ENE) 12:14:23 437.345
STRAND 1 04 Aug 12:17:12 12:20:57 22° 66° (ENE) 12:24:51 437.568
Cubesat XI-IV 04 Aug 12:39:45 12:44:08 26° 94° (E) 12:48:36 437.490
JAS-2 04 Aug 12:48:27 12:51:37 12° 306° (NW) 12:54:17 435.910
AO-7 04 Aug 12:50:32 12:57:38 31° 300° (WNW) 13:04:30 29.400- 29.500
RS-15 04 Aug 13:00:02 13:11:54 82° 241° (WSW) 13:24:08 29.354- 29.394
Cosmos 2499 04 Aug 13:03:35 13:09:59 33° 86° (E) 13:16:59 435.465 / 435.565
PRISM 04 Aug 13:21:30 13:25:39 72° 75° (ENE) 13:29:50 437.425
PCSat 04 Aug 13:24:40 13:26:15 11° 104° (ESE) 13:28:10 145.827
CUTE-I 04 Aug 13:33:59 13:39:20 86° 102° (ESE) 13:44:39 437.470
BEESAT 2 04 Aug 13:34:56 13:38:27 27° 50° (NE) 13:41:56 435.950
GONETS M04 04 Aug 13:39:21 13:47:19 37° 289° (WNW) 13:55:07
CUBESAT XI-V 04 Aug 13:44:34 13:47:38 17° 269° (W) 13:50:30 437.345
AIST 2 04 Aug 13:53:47 13:55:25 12° 40° (NE) 13:57:13 435.215
STRAND 1 04 Aug 13:54:58 13:59:53 45° 261° (W) 14:04:48 437.568
GOMX 1 04 Aug 13:57:51 13:59:28 12° 89° (E) 14:01:26 467.674
BRITE-PL 04 Aug 14:02:29 14:06:01 23° 94° (E) 14:09:51 437.365/2234.400
BEESAT 3 04 Aug 14:09:31 14:13:35 82° 58° (ENE) 14:17:34 437.485
Cubesat XI-IV 04 Aug 14:19:27 14:24:20 37° 291° (WNW) 14:29:08 437.490
CANX-2 04 Aug 14:26:13 14:26:29 10° 88° (E) 14:27:04 2200.000
AUBIESAT-1 04 Aug 14:32:30 14:34:12 12° 58° (ENE) 14:36:09 437.475
SO-50 04 Aug 14:37:20 14:41:51 47° 116° (ESE) 14:46:33 436.795
HO-68 04 Aug 14:47:30 14:53:21 27° 94° (E) 14:59:23 435.675
CINEMA 3 04 Aug 14:51:57 14:53:47 12° 89° (E) 14:55:56 145.822/145.860
Cosmos 2499 04 Aug 14:55:49 15:02:56 45° 286° (WNW) 15:10:34 435.465 / 435.565
PCSat 04 Aug 15:03:36 15:09:01 85° 298° (WNW) 15:14:29 145.827
DOVE 4 04 Aug 15:05:23 15:09:47 38° 97° (E) 15:14:28 437.250
BEESAT 2 04 Aug 15:13:00 15:16:25 26° 247° (WSW) 15:19:44 435.950
RS-15 04 Aug 15:15:06 15:23:00 19° 259° (WSW) 15:30:09 29.354- 29.394
CUTE-I 04 Aug 15:16:31 15:18:46 12° 299° (WNW) 15:20:43 437.470
COMPASS 1 04 Aug 15:20:58 15:24:26 25° 94° (E) 15:27:58 437.405
AIST 2 04 Aug 15:30:26 15:34:38 83° 240° (WSW) 15:38:45 435.215
GOMX 1 04 Aug 15:33:25 15:38:01 67° 284° (WNW) 15:42:57 467.674
M-CUBED/EXP-1 PRIME 04 Aug 15:38:13 15:42:18 71° 71° (ENE) 15:46:46 437.505
BRITE-PL 04 Aug 15:40:34 15:44:36 33° 288° (WNW) 15:48:52 437.365/2234.400
SEEDS 04 Aug 15:41:14 15:45:26 56° 100° (E) 15:49:36 437.485
ZACube-1 04 Aug 15:42:48 15:43:40 11° 88° (E) 15:44:50 437.345
CUTE 1.7 + AOD 2 04 Aug 15:49:40 15:53:59 90° 88° (E) 15:58:16 437.475
CANX-2 04 Aug 15:58:39 16:02:55 63° 285° (WNW) 16:07:08 2200.000
AAUSAT CUBESAT 2 04 Aug 15:58:50 16:03:00 59° 101° (E) 16:07:07 437.432
FUNcube-1 04 Aug 16:01:05 16:04:02 17° 91° (E) 16:07:10 145.935
AUBIESAT-1 04 Aug 16:04:12 16:08:18 68° 255° (WSW) 16:12:45 437.475
Oscar 11 04 Aug 16:07:10 16:11:02 31° 96° (E) 16:14:56 145.826/435.025
UWE-3 04 Aug 16:11:50 16:15:56 31° 96° (E) 16:20:07 435.000/436.395/437.385
UNISAT 6 04 Aug 16:13:09 16:16:58 30° 70° (ENE) 16:20:56 437.425
DUCHIFAT 1 04 Aug 16:15:48 16:16:55 11° 65° (ENE) 16:18:16 145.980
O/OREOS (USA 219) 04 Aug 16:18:36 16:22:03 21° 57° (ENE) 16:25:36 437.305
SO-50 04 Aug 16:18:47 16:22:40 23° 315° (NW) 16:26:34 436.795
NANOSAT C BR1 04 Aug 16:20:44 16:22:39 13° 66° (ENE) 16:24:45 145.865
QB50P1 04 Aug 16:20:53 16:22:53 14° 66° (ENE) 16:25:04 145.935-145.965
CINEMA 3 04 Aug 16:26:42 16:31:27 67° 284° (WNW) 16:36:20 145.822/145.860
